Regional Weather Roundup
Issued by NWS

Home | Current Version | Previous Version | Graphics & Text | Print | Product List | Glossary On
Versions: 1 2 3 4 5 6 7 8 9 10 11 12 13 14 15 16 17 18 19 20 21 22 23 24 25 26 27 28 29 30 31 32 33 34 35 36 37 38 39 40 41 42 43 44 45 46 47 48 49 50
000
ASUS43 KIND 280159
RWRIN

WEATHER ROUNDUP FOR INDIANA
NATIONAL WEATHER SERVICE INDIANAPOLIS IN
1000 PM EDT THU APR 27 2017

NOTE: "FAIR" INDICATES FEW OR NO CLOUDS BELOW 12,000 FEET WITH NO
SIGNIFICANT WEATHER AND/OR OBSTRUCTIONS TO VISIBILITY.

* - STATION DOES NOT REPORT WEATHER SUCH AS PRECIPITATION OR FOG.

+ - STATION NOT QUALITY CONTROLLED BY THE NATIONAL WEATHER SERVICE.
    USE DATA WITH CAUTION...ESPECIALLY DEWPOINT AND RELATIVE
    HUMIDITY OBSERVATIONS.

INZ001>003-010>013-019-020-280300-
NORTHWEST INDIANA

CITY           SKY/WX    TMP DP  RH WIND       PRES   REMARKS
GARY /AIRPORT/ CLOUDY    48  37  66 W14G25    29.82R
MONTICELLO +   CLOUDY    47  41  78 SW7       29.85R
RENSSELAER +   CLOUDY    46  41  81 SW6       29.83S

$$

LMZ046-743>745-280300-
SOUTHERN LAKE MICHIGAN

STATION/POSITION TIME  TEMP    WIND        PRES    WAVE
                       AIR SEA DIR/SP/G            HT
                 (UTC) (F)     (DEG/KT/KT) (MB)    (FT)
BURNS HARBOR     0108   49     240/ 11/ 20 1009.5
MICHIGAN CITY    0130   48     220/ 18/ 20   N/A
5NW MICH CITY    0150   47 47                N/A     4

$$

INZ004-005-014>016-021>024-280300-
NORTH CENTRAL INDIANA

CITY           SKY/WX    TMP DP  RH WIND       PRES   REMARKS
GOSHEN         CLOUDY    49  39  68 SW16      29.82R
SOUTH BEND     CLOUDY    47  40  76 SW10      29.83R

$$

INZ006>009-017-018-025>027-280300-
NORTHEAST INDIANA

CITY           SKY/WX    TMP DP  RH WIND       PRES   REMARKS
ANGOLA *+      CLOUDY    48  41  76 W9        29.80R
FORT WAYNE     CLOUDY    51  43  74 W12       29.84R
KENDALLVILLE + CLOUDY    48  41  76 SW10G21   29.81R

$$

INZ028-029-035-036-043>045-051>053-280300-
WEST CENTRAL INDIANA

CITY           SKY/WX    TMP DP  RH WIND       PRES   REMARKS
CRAWFORDSVL +  CLOUDY    47  45  93 SW3       29.86R
GREENCASTLE +  CLOUDY    50  43  76 CALM      29.87R
LAFAYETTE      CLOUDY    48  43  82 W8        29.85R
TERRE HAUTE    MOCLDY    52  43  71 SW5       29.87R

$$

INZ030>032-037>040-046>048-054>057-064-065-280300-
CENTRAL INDIANA

CITY           SKY/WX    TMP DP  RH WIND       PRES   REMARKS
CP ATTERBURY + CLEAR     50  43  76 SW3       29.87R
COLUMBUS       CLEAR     50  43  76 W3        29.87R
INDIANAPOLIS   MOCLDY    50  43  77 W8        29.86R
-EAGLE CREEK   PTCLDY    52  42  69 SW5       29.86R
KOKOMO +       CLOUDY    50  43  77 W10       29.86R
SHELBYVILLE    PTCLDY    54  43  66 W6        29.85R

$$

INZ033-034-041-042-049-050-058-059-280300-
EAST CENTRAL INDIANA

CITY           SKY/WX    TMP DP  RH WIND       PRES   REMARKS
MUNCIE         PTCLDY    51  44  77 W6        29.85R
RICHMOND +     CLOUDY    48  43  81 W6        29.86R

$$

INZ060-061-067>069-081>083-085>088-280300-
SOUTHWEST INDIANA

CITY           SKY/WX    TMP DP  RH WIND       PRES   REMARKS
EVANSVILLE     CLEAR     52  46  80 S5        29.87S
HUNTINGBURG *+ CLEAR     53  48  83 CALM      29.88R

$$

INZ062-063-066-070>080-084-089>092-280300-
SOUTH CENTRAL AND SOUTHEAST INDIANA

CITY           SKY/WX    TMP DP  RH WIND       PRES   REMARKS
BLOOMINGTON    CLEAR     48  43  82 CALM      29.87R
MADISON *+     CLEAR     52  46  82 CALM      29.89R
SEYMOUR +      CLEAR     50  46  87 SW5       29.87R

$$





USA.gov is the U.S. government's official web portal to all federal, state and local government web resources and services.